CXA5653 WBKK-ZSAM

Flight info

Callsign CXA5653
Flight time N/A
Altitude 35100
Route ENBAX1F ENBAX M522 VINIK M754 AKOTA/N0468F380 A583 BIGEX/N0466F370 A1 MAGOG A470 DOTMI/K0861S1130 A470 TEBON TEBON8X
Aircraft B738/M-SDE2E3FGHIRWXY/LB1

Departure

Time 2026-04-19 09:20
Airport Kota Kinabalu International Airport (WBKK)

Arrival

Time N/A
Airport Xiamen Gaoqi International Airport (ZSAM)
Time Latitude Longitude Altitude Speed Heading
2026-04-19 09:11 5.92055 116.05073 39 ft 0 kts 68°
2026-04-19 09:12 5.92051 116.05063 39 ft 2 kts 68°
2026-04-19 09:12 5.92045 116.05048 39 ft 2 kts 68°
2026-04-19 09:12 5.92039 116.05035 40 ft 2 kts 68°
2026-04-19 09:12 5.92034 116.05020 40 ft 2 kts 69°
2026-04-19 09:13 5.92029 116.05007 40 ft 2 kts 68°
2026-04-19 09:13 5.92025 116.04998 40 ft 0 kts 69°
2026-04-19 09:13 5.92022 116.04993 40 ft 0 kts 17°
2026-04-19 09:13 5.92017 116.04992 39 ft 0 kts 334°
2026-04-19 09:14 5.92012 116.04994 39 ft 0 kts 338°
2026-04-19 09:16 5.92021 116.04990 39 ft 4 kts 336°
2026-04-19 09:16 5.92069 116.04964 40 ft 11 kts 331°
2026-04-19 09:16 5.92162 116.04923 41 ft 18 kts 338°
2026-04-19 09:17 5.92309 116.04866 35 ft 24 kts 338°
2026-04-19 09:17 5.92400 116.04767 28 ft 19 kts 253°
2026-04-19 09:17 5.92294 116.04704 29 ft 16 kts 202°
2026-04-19 09:17 5.92195 116.04663 31 ft 17 kts 202°
2026-04-19 09:18 5.92053 116.04604 29 ft 27 kts 202°
2026-04-19 09:18 5.91863 116.04522 23 ft 33 kts 203°
2026-04-19 09:18 5.91794 116.04392 16 ft 24 kts 297°
2026-04-19 09:18 5.91912 116.04356 13 ft 0 kts 22°
2026-04-19 09:19 5.91924 116.04361 13 ft 13 kts 22°
2026-04-19 09:19 5.92295 116.04519 22 ft 98 kts 22°
2026-04-19 09:19 5.93105 116.04861 28 ft 166 kts 23°
2026-04-19 09:19 5.94339 116.05385 384 ft 202 kts 22°
2026-04-19 09:20 5.95582 116.05901 949 ft 211 kts 23°
2026-04-19 09:20 5.96894 116.06428 1904 ft 201 kts 21°
2026-04-19 09:20 5.98272 116.06955 2277 ft 218 kts 21°
2026-04-19 09:20 5.99700 116.07512 2935 ft 220 kts 21°
2026-04-19 09:21 6.01154 116.08092 3479 ft 230 kts 22°
2026-04-19 09:21 6.02659 116.08698 4164 ft 232 kts 22°
2026-04-19 09:21 6.04171 116.09309 4817 ft 236 kts 22°
2026-04-19 09:21 6.05696 116.09926 5492 ft 238 kts 22°
2026-04-19 09:22 6.07219 116.10542 6150 ft 239 kts 22°
2026-04-19 09:22 6.08781 116.11175 6795 ft 242 kts 22°
2026-04-19 09:22 6.10361 116.11814 7433 ft 245 kts 22°
2026-04-19 09:22 6.11946 116.12455 8098 ft 245 kts 22°
2026-04-19 09:23 6.13565 116.13110 8722 ft 248 kts 22°
2026-04-19 09:23 6.15182 116.13765 9326 ft 251 kts 22°
2026-04-19 09:23 6.16812 116.14423 9932 ft 253 kts 22°
2026-04-19 09:23 6.18471 116.14998 10512 ft 255 kts 11°
2026-04-19 09:24 6.20290 116.15089 10876 ft 267 kts 354°